Time,TemperatureF,DewpointF,PressureIn,WindDirection,WindDirectionDegrees,WindSpeedMPH,WindSpeedGustMPH,Humidity,HourlyPrecipIn,Conditions,Clouds,dailyrainin,SoftwareType,DateUTC
2013-10-19 00:13:00,37.0,35.0,29.83,SSW,202,0.0,0.0,92,0.00,,,0.06,,2013-10-19 05:13:00,
2013-10-19 00:22:00,37.0,35.0,29.82,SSW,203,0.0,1.0,92,0.00,,,0.06,,2013-10-19 05:22:00,
2013-10-19 00:42:00,37.0,35.0,29.82,SSW,201,0.0,1.0,91,0.00,,,0.06,,2013-10-19 05:42:00,
2013-10-19 00:52:00,37.0,35.0,29.81,SSW,202,0.0,0.0,91,0.00,,,0.06,,2013-10-19 05:52:00,
2013-10-19 01:12:00,37.0,34.0,29.81,SW,216,0.0,2.0,90,0.00,,,0.06,,2013-10-19 06:12:00,
2013-10-19 01:22:00,37.0,34.0,29.81,SW,216,0.0,2.0,90,0.00,,,0.05,,2013-10-19 06:22:00,
2013-10-19 01:42:00,36.0,33.0,29.81,SW,216,0.0,1.0,90,0.00,,,0.05,,2013-10-19 06:42:00,
2013-10-19 01:52:00,36.0,33.0,29.80,SW,216,0.0,2.0,90,0.00,,,0.05,,2013-10-19 06:52:00,
2013-10-19 02:11:00,36.0,33.0,29.80,SW,216,0.0,1.0,90,0.00,,,0.05,,2013-10-19 07:11:00,
2013-10-19 02:22:00,36.0,33.0,29.79,SW,216,0.0,2.0,90,0.00,,,0.05,,2013-10-19 07:22:00,
2013-10-19 02:42:00,36.0,33.0,29.79,SW,224,0.0,3.0,89,0.00,,,0.05,,2013-10-19 07:42:00,
2013-10-19 02:53:00,36.0,33.0,29.78,WSW,242,0.0,2.0,89,0.00,,,0.05,,2013-10-19 07:53:00,
2013-10-19 03:11:00,36.0,33.0,29.78,WSW,242,0.0,1.0,88,0.00,,,0.05,,2013-10-19 08:11:00,
2013-10-19 03:22:00,36.0,33.0,29.77,WSW,244,0.0,2.0,88,0.00,,,0.04,,2013-10-19 08:22:00,
2013-10-19 03:42:00,36.0,33.0,29.76,WSW,243,0.0,1.0,87,0.00,,,0.04,,2013-10-19 08:42:00,
2013-10-19 03:52:00,35.0,32.0,29.75,WSW,243,0.0,1.0,88,0.00,,,0.04,,2013-10-19 08:52:00,
2013-10-19 04:11:00,35.0,32.0,29.75,WSW,243,0.0,0.0,89,0.00,,,0.04,,2013-10-19 09:11:00,
2013-10-19 04:21:00,35.0,32.0,29.75,WSW,243,0.0,1.0,89,0.00,,,0.04,,2013-10-19 09:21:00,
2013-10-19 04:43:00,34.0,31.0,29.74,WSW,244,0.0,0.0,89,0.00,,,0.04,,2013-10-19 09:43:00,
2013-10-19 04:54:00,34.0,31.0,29.74,WSW,243,0.0,1.0,90,0.00,,,0.04,,2013-10-19 09:54:00,
2013-10-19 05:13:00,34.0,31.0,29.74,WSW,243,0.0,1.0,90,0.00,,,0.04,,2013-10-19 10:13:00,
2013-10-19 05:23:00,34.0,31.0,29.73,WSW,243,0.0,0.0,90,0.00,,,0.04,,2013-10-19 10:23:00,
2013-10-19 05:42:00,34.0,31.0,29.73,WSW,243,0.0,1.0,90,0.00,,,0.04,,2013-10-19 10:42:00,
2013-10-19 05:53:00,33.0,31.0,29.73,WSW,243,0.0,0.0,91,0.00,,,0.04,,2013-10-19 10:53:00,
2013-10-19 06:12:00,33.0,31.0,29.72,WSW,242,0.0,1.0,91,0.00,,,0.04,,2013-10-19 11:12:00,
2013-10-19 06:22:00,33.0,31.0,29.72,WSW,242,0.0,1.0,91,0.00,,,0.04,,2013-10-19 11:22:00,
2013-10-19 06:42:00,33.0,31.0,29.72,WSW,242,0.0,1.0,91,0.00,,,0.04,,2013-10-19 11:42:00,
2013-10-19 06:52:00,32.0,30.0,29.72,WSW,242,0.0,0.0,92,0.00,,,0.04,,2013-10-19 11:52:00,
2013-10-19 07:11:00,32.0,30.0,29.71,WSW,242,0.0,0.0,92,0.00,,,0.04,,2013-10-19 12:11:00,
2013-10-19 07:22:00,32.0,30.0,29.71,WSW,242,0.0,1.0,93,0.00,,,0.04,,2013-10-19 12:22:00,
2013-10-19 07:42:00,33.0,31.0,29.71,SW,221,0.0,2.0,93,0.00,,,0.04,,2013-10-19 12:42:00,
2013-10-19 07:52:00,33.0,31.0,29.72,SW,221,0.0,2.0,92,0.00,,,0.04,,2013-10-19 12:52:00,
2013-10-19 08:12:00,33.0,31.0,29.72,SW,221,0.0,0.0,92,0.00,,,0.04,,2013-10-19 13:12:00,
2013-10-19 08:22:00,34.0,32.0,29.71,South,180,1.0,2.0,92,0.00,,,0.04,,2013-10-19 13:22:00,
2013-10-19 08:42:00,35.0,32.0,29.71,South,187,1.0,3.0,90,0.00,,,0.04,,2013-10-19 13:42:00,
2013-10-19 08:52:00,35.0,32.0,29.70,South,190,1.0,4.0,89,0.00,,,0.04,,2013-10-19 13:52:00,
2013-10-19 09:11:00,35.0,32.0,29.70,SSW,208,1.0,2.0,89,0.00,,,0.04,,2013-10-19 14:11:00,
2013-10-19 09:21:00,37.0,34.0,29.71,WNW,282,1.0,3.0,88,0.01,,,0.05,,2013-10-19 14:21:00,
2013-10-19 09:42:00,37.0,34.0,29.70,SSW,203,2.0,7.0,87,0.01,,,0.05,,2013-10-19 14:42:00,
2013-10-19 09:52:00,38.0,34.0,29.70,West,279,2.0,7.0,86,0.01,,,0.05,,2013-10-19 14:52:00,
2013-10-19 10:11:00,39.0,35.0,29.70,SSE,150,2.0,6.0,85,0.01,,,0.05,,2013-10-19 15:11:00,
2013-10-19 10:22:00,40.0,36.0,29.70,West,268,1.0,7.0,85,0.00,,,0.02,,2013-10-19 15:22:00,
2013-10-19 10:44:00,41.0,36.0,29.70,SSW,203,3.0,9.0,83,0.00,,,0.02,,2013-10-19 15:44:00,
2013-10-19 10:55:00,42.0,37.0,29.70,SW,222,4.0,7.0,81,0.00,,,0.02,,2013-10-19 15:55:00,
2013-10-19 11:14:00,42.0,37.0,29.69,West,267,3.0,7.0,81,0.00,,,0.02,,2013-10-19 16:14:00,
2013-10-19 11:24:00,44.0,38.0,29.68,West,261,4.0,9.0,79,0.00,,,0.02,,2013-10-19 16:24:00,
2013-10-19 11:43:00,44.0,37.0,29.68,South,180,6.0,11.0,75,0.00,,,0.02,,2013-10-19 16:43:00,
2013-10-19 11:53:00,45.0,37.0,29.68,SSW,200,3.0,9.0,74,0.00,,,0.02,,2013-10-19 16:53:00,
2013-10-19 12:13:00,46.0,37.0,29.68,SSE,163,4.0,9.0,70,0.00,,,0.02,,2013-10-19 17:13:00,
2013-10-19 12:22:00,46.0,36.0,29.67,SSE,168,4.0,11.0,68,0.00,,,0.02,,2013-10-19 17:22:00,
2013-10-19 12:43:00,47.0,37.0,29.67,NW,307,4.0,9.0,67,0.00,,,0.02,,2013-10-19 17:43:00,
2013-10-19 12:52:00,47.0,36.0,29.66,WSW,252,3.0,9.0,65,0.00,,,0.02,,2013-10-19 17:52:00,
2013-10-19 13:12:00,49.0,36.0,29.65,SW,228,3.0,9.0,61,0.00,,,0.02,,2013-10-19 18:12:00,
2013-10-19 13:22:00,48.0,35.0,29.65,WSW,253,6.0,10.0,61,0.00,,,0.02,,2013-10-19 18:22:00,
2013-10-19 13:42:00,49.0,34.0,29.64,West,261,4.0,9.0,57,0.00,,,0.02,,2013-10-19 18:42:00,
2013-10-19 13:52:00,49.0,34.0,29.63,SE,141,4.0,10.0,55,0.00,,,0.02,,2013-10-19 18:52:00,
2013-10-19 14:12:00,50.0,34.0,29.62,West,263,6.0,11.0,54,0.00,,,0.02,,2013-10-19 19:12:00,
2013-10-19 14:22:00,50.0,34.0,29.62,WSW,244,4.0,10.0,53,0.00,,,0.01,,2013-10-19 19:22:00,
2013-10-19 14:42:00,48.0,33.0,29.62,West,277,4.0,8.0,55,0.00,,,0.01,,2013-10-19 19:42:00,
2013-10-19 14:52:00,40.0,36.0,29.65,West,267,10.0,21.0,85,0.02,,,0.03,,2013-10-19 19:52:00,
2013-10-19 15:22:00,41.0,40.0,29.64,West,263,1.0,3.0,95,0.10,,,0.11,,2013-10-19 20:22:00,
2013-10-19 15:42:00,43.0,41.0,29.64,SSW,200,3.0,5.0,91,0.10,,,0.11,,2013-10-19 20:42:00,
2013-10-19 15:52:00,44.0,40.0,29.64,West,275,2.0,7.0,87,0.08,,,0.11,,2013-10-19 20:52:00,
2013-10-19 16:11:00,45.0,41.0,29.64,WSW,251,2.0,5.0,86,0.01,,,0.11,,2013-10-19 21:11:00,
2013-10-19 16:21:00,45.0,41.0,29.64,South,178,2.0,6.0,86,0.00,,,0.11,,2013-10-19 21:21:00,
2013-10-19 16:44:00,45.0,41.0,29.64,SSW,202,1.0,5.0,87,0.00,,,0.11,,2013-10-19 21:44:00,
2013-10-19 16:54:00,44.0,41.0,29.65,West,281,2.0,5.0,88,0.04,,,0.15,,2013-10-19 21:54:00,
2013-10-19 17:14:00,42.0,39.0,29.65,WSW,257,2.0,6.0,90,0.05,,,0.16,,2013-10-19 22:14:00,
2013-10-19 17:24:00,43.0,40.0,29.65,West,261,1.0,4.0,88,0.05,,,0.16,,2013-10-19 22:24:00,
2013-10-19 17:43:00,42.0,39.0,29.65,West,268,0.0,2.0,88,0.05,,,0.16,,2013-10-19 22:43:00,
2013-10-19 17:53:00,42.0,39.0,29.65,West,268,0.0,1.0,89,0.01,,,0.16,,2013-10-19 22:53:00,
2013-10-19 18:12:00,42.0,39.0,29.66,West,268,0.0,1.0,90,0.00,,,0.16,,2013-10-19 23:12:00,
2013-10-19 18:22:00,41.0,39.0,29.66,West,267,0.0,1.0,91,0.00,,,0.16,,2013-10-19 23:22:00,
2013-10-19 18:42:00,40.0,38.0,29.66,West,267,0.0,0.0,92,0.00,,,0.16,,2013-10-19 23:42:00,
2013-10-19 18:52:00,40.0,38.0,29.67,West,267,0.0,1.0,93,0.00,,,0.16,,2013-10-19 23:52:00,
2013-10-19 19:11:00,40.0,38.0,29.67,West,267,0.0,0.0,93,0.00,,,0.16,,2013-10-20 00:11:00,
2013-10-19 19:22:00,40.0,38.0,29.68,West,267,0.0,0.0,94,0.00,,,0.16,,2013-10-20 00:22:00,
2013-10-19 19:42:00,39.0,37.0,29.67,West,267,0.0,0.0,94,0.00,,,0.16,,2013-10-20 00:42:00,
2013-10-19 19:52:00,39.0,37.0,29.68,West,267,0.0,0.0,94,0.00,,,0.16,,2013-10-20 00:52:00,
2013-10-19 20:11:00,39.0,38.0,29.69,West,267,0.0,1.0,95,0.00,,,0.16,,2013-10-20 01:11:00,
2013-10-19 20:22:00,39.0,38.0,29.69,West,267,0.0,1.0,95,0.00,,,0.16,,2013-10-20 01:22:00,
2013-10-19 20:42:00,40.0,38.0,29.69,WSW,252,4.0,8.0,92,0.00,,,0.16,,2013-10-20 01:42:00,
2013-10-19 20:52:00,41.0,39.0,29.69,WNW,284,1.0,2.0,91,0.00,,,0.16,,2013-10-20 01:52:00,
2013-10-19 21:11:00,41.0,38.0,29.70,WNW,284,1.0,5.0,90,0.00,,,0.16,,2013-10-20 02:11:00,
2013-10-19 21:22:00,40.0,37.0,29.70,WNW,292,1.0,4.0,89,0.00,,,0.16,,2013-10-20 02:22:00,
2013-10-19 21:42:00,40.0,37.0,29.70,WNW,288,0.0,2.0,89,0.00,,,0.16,,2013-10-20 02:42:00,
2013-10-19 21:52:00,39.0,36.0,29.71,WNW,286,1.0,4.0,89,0.00,,,0.16,,2013-10-20 02:52:00,
2013-10-19 22:12:00,38.0,35.0,29.71,West,281,1.0,2.0,89,0.00,,,0.16,,2013-10-20 03:12:00,
2013-10-19 22:22:00,38.0,35.0,29.71,WNW,290,1.0,4.0,90,0.00,,,0.16,,2013-10-20 03:22:00,
2013-10-19 22:44:00,37.0,34.0,29.72,WNW,289,0.0,3.0,90,0.00,,,0.16,,2013-10-20 03:44:00,
2013-10-19 22:55:00,37.0,35.0,29.72,WNW,289,0.0,2.0,91,0.00,,,0.16,,2013-10-20 03:55:00,
2013-10-19 23:02:00,-999.0,-99.9,29.72,WNW,289,0.0,1.0,-999,-99.99,,,-99.99,,2013-10-20 04:02:00,
2013-10-19 23:14:00,36.0,34.0,29.72,WNW,289,0.0,1.0,92,0.00,,,0.16,,2013-10-20 04:14:00,
2013-10-19 23:24:00,36.0,34.0,29.71,WNW,289,0.0,0.0,93,0.00,,,0.16,,2013-10-20 04:24:00,
2013-10-19 23:44:00,35.0,33.0,29.71,WNW,289,0.0,0.0,94,0.00,,,0.16,,2013-10-20 04:44:00,
2013-10-19 23:54:00,35.0,33.0,29.72,WNW,289,0.0,0.0,94,0.00,,,0.16,,2013-10-20 04:54:00,